Time,TemperatureF,DewpointF,PressureIn,WindDirection,WindDirectionDegrees,WindSpeedMPH,WindSpeedGustMPH,Humidity,HourlyPrecipIn,Conditions,Clouds,dailyrainin,SoftwareType,DateUTC
2013-05-09 00:01:00,60.1,57.5,30.02,SW,226,0.0,2.0,91,0.00,,SKC,0.00,VWS V13.00,2013-05-09 05:01:00,
2013-05-09 00:06:00,60.3,57.7,30.02,SW,226,0.0,1.0,91,0.00,,SKC,0.00,VWS V13.00,2013-05-09 05:06:00,
2013-05-09 00:11:00,60.5,57.6,30.02,SW,226,0.0,1.0,90,0.00,,SKC,0.00,VWS V13.00,2013-05-09 05:11:00,
2013-05-09 00:16:00,60.6,57.7,30.01,SW,226,0.0,1.0,90,0.00,,SKC,0.00,VWS V13.00,2013-05-09 05:16:00,
2013-05-09 00:21:00,60.7,57.8,30.01,SW,226,0.0,1.0,90,0.00,,SKC,0.00,VWS V13.00,2013-05-09 05:21:00,
2013-05-09 00:26:00,60.6,57.7,30.02,SW,226,1.0,1.0,90,0.00,,SKC,0.00,VWS V13.00,2013-05-09 05:26:00,
2013-05-09 00:31:00,60.6,57.7,30.01,SW,226,0.0,1.0,90,0.00,,SKC,0.00,VWS V13.00,2013-05-09 05:31:00,
2013-05-09 00:36:00,60.6,57.7,30.01,SW,226,0.0,0.0,90,0.00,,SKC,0.00,VWS V13.00,2013-05-09 05:36:00,
2013-05-09 00:41:00,60.5,57.6,30.01,SW,226,0.0,0.0,90,0.00,,SKC,0.00,VWS V13.00,2013-05-09 05:41:00,
2013-05-09 00:46:00,60.5,57.6,30.01,SW,226,0.0,0.0,90,0.00,,SKC,0.00,VWS V13.00,2013-05-09 05:46:00,
2013-05-09 00:51:00,60.4,57.5,30.01,SW,226,0.0,0.0,90,0.00,,SKC,0.00,VWS V13.00,2013-05-09 05:51:00,
2013-05-09 00:56:00,60.0,57.4,30.01,SW,226,0.0,0.0,91,0.00,,SKC,0.00,VWS V13.00,2013-05-09 05:56:00,
2013-05-09 01:01:00,59.8,57.2,30.01,SW,226,1.0,2.0,91,0.00,,SKC,0.00,VWS V13.00,2013-05-09 06:01:00,
2013-05-09 01:06:00,59.6,57.3,30.01,SW,226,0.0,0.0,92,0.00,,SKC,0.00,VWS V13.00,2013-05-09 06:06:00,
2013-05-09 01:11:00,59.7,57.4,30.01,SW,226,0.0,0.0,92,0.00,,SKC,0.00,VWS V13.00,2013-05-09 06:11:00,
2013-05-09 01:16:00,59.8,57.5,30.01,SW,226,0.0,2.0,92,0.00,,SKC,0.00,VWS V13.00,2013-05-09 06:16:00,
2013-05-09 01:21:00,59.7,57.4,30.00,SW,226,0.0,2.0,92,0.00,,SKC,0.00,VWS V13.00,2013-05-09 06:21:00,
2013-05-09 01:26:00,59.5,57.2,30.00,SW,226,0.0,2.0,92,0.00,,SKC,0.00,VWS V13.00,2013-05-09 06:26:00,
2013-05-09 01:31:00,59.5,57.2,30.00,SW,226,0.0,2.0,92,0.00,,SKC,0.00,VWS V13.00,2013-05-09 06:31:00,
2013-05-09 01:36:00,59.6,57.3,30.00,SW,226,0.0,1.0,92,0.00,,SKC,0.00,VWS V13.00,2013-05-09 06:36:00,
2013-05-09 01:41:00,59.6,57.3,30.00,SW,226,1.0,1.0,92,0.00,,SKC,0.00,VWS V13.00,2013-05-09 06:41:00,
2013-05-09 01:46:00,59.7,57.4,30.00,SW,226,0.0,1.0,92,0.00,,SKC,0.00,VWS V13.00,2013-05-09 06:46:00,
2013-05-09 01:51:00,59.8,57.5,30.00,SW,226,0.0,1.0,92,0.00,,SKC,0.00,VWS V13.00,2013-05-09 06:51:00,
2013-05-09 01:55:00,59.8,57.5,30.00,SW,226,0.0,1.0,92,0.00,,SKC,0.00,VWS V13.00,2013-05-09 06:55:00,
2013-05-09 02:00:00,59.8,57.5,30.00,SW,226,0.0,1.0,92,0.00,,SKC,0.00,VWS V13.00,2013-05-09 07:00:00,
2013-05-09 02:05:00,59.9,57.3,30.00,SW,226,0.0,0.0,91,0.00,,SKC,0.00,VWS V13.00,2013-05-09 07:05:00,
2013-05-09 02:10:00,59.9,57.3,30.00,SW,226,0.0,0.0,91,0.00,,SKC,0.00,VWS V13.00,2013-05-09 07:10:00,
2013-05-09 02:15:00,59.8,57.2,30.01,SW,226,0.0,1.0,91,0.00,,SKC,0.00,VWS V13.00,2013-05-09 07:15:00,
2013-05-09 02:20:00,59.8,57.5,30.01,SW,226,0.0,2.0,92,0.00,,SKC,0.00,VWS V13.00,2013-05-09 07:20:00,
2013-05-09 02:25:00,59.7,57.4,30.01,SW,226,0.0,2.0,92,0.00,,SKC,0.00,VWS V13.00,2013-05-09 07:25:00,
2013-05-09 02:30:00,59.7,57.4,30.01,SW,226,0.0,2.0,92,0.00,,SKC,0.00,VWS V13.00,2013-05-09 07:30:00,
2013-05-09 02:35:00,59.6,57.3,30.01,SW,226,0.0,0.0,92,0.00,,SKC,0.00,VWS V13.00,2013-05-09 07:35:00,
2013-05-09 02:40:00,59.5,57.2,30.02,SW,226,1.0,2.0,92,0.00,,SKC,0.00,VWS V13.00,2013-05-09 07:40:00,
2013-05-09 02:45:00,59.5,57.2,30.02,SW,226,0.0,2.0,92,0.00,,SKC,0.00,VWS V13.00,2013-05-09 07:45:00,
2013-05-09 02:50:00,59.4,57.1,30.02,SW,226,0.0,2.0,92,0.00,,SKC,0.00,VWS V13.00,2013-05-09 07:50:00,
2013-05-09 02:55:00,59.4,57.1,30.02,SW,226,0.0,2.0,92,0.00,,SKC,0.00,VWS V13.00,2013-05-09 07:55:00,
2013-05-09 03:00:00,59.4,57.1,30.02,SW,226,1.0,2.0,92,0.00,,SKC,0.00,VWS V13.00,2013-05-09 08:00:00,
2013-05-09 03:05:00,59.3,57.0,30.02,SW,226,0.0,2.0,92,0.00,,SKC,0.00,VWS V13.00,2013-05-09 08:05:00,
2013-05-09 03:10:00,59.3,57.3,30.02,SW,226,0.0,2.0,93,0.00,,SKC,0.00,VWS V13.00,2013-05-09 08:10:00,
2013-05-09 03:15:00,59.2,56.9,30.02,SW,226,0.0,2.0,92,0.00,,SKC,0.00,VWS V13.00,2013-05-09 08:15:00,
2013-05-09 03:20:00,58.8,56.8,30.02,SW,226,0.0,2.0,93,0.00,,SKC,0.00,VWS V13.00,2013-05-09 08:20:00,
2013-05-09 03:25:00,58.6,56.6,30.02,SW,226,0.0,2.0,93,0.00,,SKC,0.00,VWS V13.00,2013-05-09 08:25:00,
2013-05-09 03:30:00,58.2,56.2,30.02,SW,226,0.0,2.0,93,0.00,,SKC,0.00,VWS V13.00,2013-05-09 08:30:00,
2013-05-09 03:35:00,58.2,56.5,30.02,SW,226,0.0,0.0,94,0.00,,SKC,0.00,VWS V13.00,2013-05-09 08:35:00,
2013-05-09 03:40:00,58.1,56.7,30.02,SW,226,0.0,0.0,95,0.00,,SKC,0.00,VWS V13.00,2013-05-09 08:40:00,
2013-05-09 03:45:00,57.8,56.1,30.02,SW,226,0.0,0.0,94,0.00,,SKC,0.00,VWS V13.00,2013-05-09 08:45:00,
2013-05-09 03:50:00,57.4,55.4,30.02,SW,226,0.0,0.0,93,0.00,,SKC,0.00,VWS V13.00,2013-05-09 08:50:00,
2013-05-09 03:55:00,56.9,54.9,30.02,SW,226,0.0,0.0,93,0.00,,SKC,0.00,VWS V13.00,2013-05-09 08:55:00,
2013-05-09 04:00:00,56.4,54.7,30.02,SW,226,0.0,0.0,94,0.00,,SKC,0.00,VWS V13.00,2013-05-09 09:00:00,
2013-05-09 04:05:00,56.2,54.5,30.02,SW,226,0.0,0.0,94,0.00,,SKC,0.00,VWS V13.00,2013-05-09 09:05:00,
2013-05-09 04:10:00,56.1,54.7,30.02,SW,226,0.0,0.0,95,0.00,,SKC,0.00,VWS V13.00,2013-05-09 09:10:00,
2013-05-09 04:15:00,55.7,54.0,30.02,SW,226,0.0,0.0,94,0.00,,SKC,0.00,VWS V13.00,2013-05-09 09:15:00,
2013-05-09 04:20:00,55.3,53.6,30.03,SW,226,0.0,0.0,94,0.00,,SKC,0.00,VWS V13.00,2013-05-09 09:20:00,
2013-05-09 04:25:00,55.0,53.3,30.02,SW,226,0.0,0.0,94,0.00,,SKC,0.00,VWS V13.00,2013-05-09 09:25:00,
2013-05-09 04:30:00,54.8,53.4,30.02,SW,226,0.0,0.0,95,0.00,,SKC,0.00,VWS V13.00,2013-05-09 09:30:00,
2013-05-09 04:35:00,54.8,53.7,30.02,SW,226,0.0,0.0,96,0.00,,SKC,0.00,VWS V13.00,2013-05-09 09:35:00,
2013-05-09 04:40:00,54.6,53.5,30.02,SW,226,0.0,0.0,96,0.00,,SKC,0.00,VWS V13.00,2013-05-09 09:40:00,
2013-05-09 04:45:00,54.6,53.5,30.02,SW,226,0.0,0.0,96,0.00,,SKC,0.00,VWS V13.00,2013-05-09 09:45:00,
2013-05-09 04:50:00,54.4,53.3,30.03,SW,226,0.0,0.0,96,0.00,,SKC,0.00,VWS V13.00,2013-05-09 09:50:00,
2013-05-09 04:55:00,54.6,53.8,30.03,SW,226,0.0,0.0,97,0.00,,SKC,0.00,VWS V13.00,2013-05-09 09:55:00,
2013-05-09 05:00:00,54.8,54.0,30.02,SW,226,0.0,0.0,97,0.00,,SKC,0.00,VWS V13.00,2013-05-09 10:00:00,
2013-05-09 05:05:00,55.1,54.3,30.03,SW,226,0.0,0.0,97,0.00,,SKC,0.00,VWS V13.00,2013-05-09 10:05:00,
2013-05-09 05:10:00,55.3,54.8,30.03,SW,226,0.0,0.0,98,0.00,,SKC,0.00,VWS V13.00,2013-05-09 10:10:00,
2013-05-09 05:15:00,55.1,54.3,30.02,SW,226,0.0,0.0,97,0.00,,SKC,0.00,VWS V13.00,2013-05-09 10:15:00,
2013-05-09 05:20:00,55.0,54.2,30.02,SW,226,0.0,0.0,97,0.00,,SKC,0.00,VWS V13.00,2013-05-09 10:20:00,
2013-05-09 05:25:00,54.9,54.1,30.03,SW,226,0.0,0.0,97,0.00,,SKC,0.00,VWS V13.00,2013-05-09 10:25:00,
2013-05-09 05:30:00,54.8,54.0,30.03,SW,226,0.0,0.0,97,0.00,,SKC,0.00,VWS V13.00,2013-05-09 10:30:00,
2013-05-09 05:35:00,54.8,54.0,30.03,SW,226,0.0,0.0,97,0.00,,SKC,0.00,VWS V13.00,2013-05-09 10:35:00,
2013-05-09 05:40:00,54.6,53.8,30.04,SW,226,0.0,0.0,97,0.00,,SKC,0.00,VWS V13.00,2013-05-09 10:40:00,
2013-05-09 05:45:00,54.6,53.8,30.04,SW,226,0.0,0.0,97,0.00,,SKC,0.00,VWS V13.00,2013-05-09 10:45:00,
2013-05-09 05:50:00,54.7,53.9,30.04,SW,226,0.0,0.0,97,0.00,,SKC,0.00,VWS V13.00,2013-05-09 10:50:00,
2013-05-09 05:55:00,55.0,54.5,30.04,SW,226,0.0,0.0,98,0.00,,SKC,0.00,VWS V13.00,2013-05-09 10:55:00,
2013-05-09 06:00:00,55.1,54.5,30.04,SW,226,0.0,0.0,98,0.00,,SKC,0.00,VWS V13.00,2013-05-09 11:00:00,
2013-05-09 06:05:00,55.3,54.8,30.05,SW,226,0.0,0.0,98,0.00,,SKC,0.00,VWS V13.00,2013-05-09 11:05:00,
2013-05-09 06:10:00,55.5,55.0,30.05,SW,226,0.0,0.0,98,0.00,,SKC,0.00,VWS V13.00,2013-05-09 11:10:00,
2013-05-09 06:15:00,55.6,55.0,30.05,SW,226,0.0,0.0,98,0.00,,SKC,0.00,VWS V13.00,2013-05-09 11:15:00,
2013-05-09 06:20:00,55.6,55.0,30.05,SW,226,0.0,0.0,98,0.00,,SKC,0.00,VWS V13.00,2013-05-09 11:20:00,
2013-05-09 06:25:00,55.6,55.0,30.05,SW,226,0.0,0.0,98,0.00,,SKC,0.00,VWS V13.00,2013-05-09 11:25:00,
2013-05-09 06:30:00,55.6,55.0,30.05,SW,226,0.0,0.0,98,0.00,,SKC,0.00,VWS V13.00,2013-05-09 11:30:00,
2013-05-09 06:35:00,55.6,55.0,30.06,SW,226,0.0,0.0,98,0.00,,SKC,0.00,VWS V13.00,2013-05-09 11:35:00,
2013-05-09 06:40:00,55.5,54.7,30.06,SW,226,0.0,0.0,97,0.00,,SKC,0.00,VWS V13.00,2013-05-09 11:40:00,
2013-05-09 06:45:00,55.4,54.6,30.06,SW,226,0.0,0.0,97,0.00,,SKC,0.00,VWS V13.00,2013-05-09 11:45:00,
2013-05-09 06:50:00,55.3,54.5,30.06,SW,226,0.0,0.0,97,0.00,,SKC,0.00,VWS V13.00,2013-05-09 11:50:00,
2013-05-09 06:55:00,55.3,54.5,30.06,SW,226,0.0,0.0,97,0.00,,SKC,0.00,VWS V13.00,2013-05-09 11:55:00,
2013-05-09 07:00:00,55.7,54.9,30.07,SW,226,0.0,0.0,97,0.00,,SKC,0.00,VWS V13.00,2013-05-09 12:00:00,
2013-05-09 07:05:00,56.2,55.7,30.07,SW,226,0.0,0.0,98,0.00,,SKC,0.00,VWS V13.00,2013-05-09 12:05:00,
2013-05-09 07:10:00,57.0,56.4,30.07,SW,226,0.0,0.0,98,0.00,,SKC,0.00,VWS V13.00,2013-05-09 12:10:00,
2013-05-09 07:15:00,57.7,57.1,30.07,SW,226,0.0,0.0,98,0.00,,SKC,0.00,VWS V13.00,2013-05-09 12:15:00,
2013-05-09 07:20:00,58.2,57.6,30.07,SW,226,0.0,0.0,98,0.00,,SKC,0.00,VWS V13.00,2013-05-09 12:20:00,
2013-05-09 07:25:00,59.0,58.4,30.07,SW,226,0.0,0.0,98,0.00,,SKC,0.00,VWS V13.00,2013-05-09 12:25:00,
2013-05-09 07:30:00,59.9,59.6,30.07,SW,226,0.0,0.0,99,0.00,,SKC,0.00,VWS V13.00,2013-05-09 12:30:00,
2013-05-09 07:35:00,60.8,60.5,30.07,SW,224,2.0,5.0,99,0.00,,SKC,0.00,VWS V13.00,2013-05-09 12:35:00,
2013-05-09 07:40:00,61.2,60.6,30.07,SSW,213,4.0,5.0,98,0.00,,SKC,0.00,VWS V13.00,2013-05-09 12:40:00,
2013-05-09 07:45:00,61.7,60.8,30.07,SSW,213,0.0,5.0,97,0.00,,SKC,0.00,VWS V13.00,2013-05-09 12:45:00,
2013-05-09 07:50:00,62.2,60.8,30.07,SSW,213,0.0,5.0,95,0.00,,SKC,0.00,VWS V13.00,2013-05-09 12:50:00,
2013-05-09 07:55:00,62.7,61.0,30.08,SSW,213,0.0,5.0,94,0.00,,SKC,0.00,VWS V13.00,2013-05-09 12:55:00,
2013-05-09 08:00:00,63.4,61.3,30.08,SW,232,0.0,5.0,93,0.00,,SKC,0.00,VWS V13.00,2013-05-09 13:00:00,
2013-05-09 08:05:00,63.8,61.4,30.08,SW,232,0.0,2.0,92,0.00,,SKC,0.00,VWS V13.00,2013-05-09 13:05:00,
2013-05-09 08:09:00,64.2,61.2,30.08,SW,232,0.0,4.0,90,0.00,,SKC,0.00,VWS V13.00,2013-05-09 13:09:00,
2013-05-09 08:14:00,64.6,61.3,30.08,WSW,250,0.0,4.0,89,0.00,,SKC,0.00,VWS V13.00,2013-05-09 13:14:00,
2013-05-09 08:19:00,65.0,61.0,30.08,WSW,239,0.0,4.0,87,0.00,,SKC,0.00,VWS V13.00,2013-05-09 13:19:00,
2013-05-09 08:24:00,65.7,62.4,30.08,WSW,239,0.0,4.0,89,0.00,,SKC,0.00,VWS V13.00,2013-05-09 13:24:00,
2013-05-09 08:29:00,66.2,61.9,30.08,WSW,242,2.0,4.0,86,0.00,,SKC,0.00,VWS V13.00,2013-05-09 13:29:00,
2013-05-09 08:34:00,66.6,62.0,30.08,WSW,242,1.0,2.0,85,0.00,,SKC,0.00,VWS V13.00,2013-05-09 13:34:00,
2013-05-09 08:39:00,67.0,61.7,30.08,WSW,242,1.0,4.0,83,0.00,,SKC,0.00,VWS V13.00,2013-05-09 13:39:00,
2013-05-09 08:44:00,67.6,62.6,30.08,West,274,1.0,4.0,84,0.00,,SKC,0.00,VWS V13.00,2013-05-09 13:44:00,
2013-05-09 08:49:00,68.1,62.1,30.08,West,274,0.0,4.0,81,0.00,,SKC,0.00,VWS V13.00,2013-05-09 13:49:00,
2013-05-09 08:54:00,68.6,62.9,30.08,West,263,0.0,4.0,82,0.00,,SKC,0.00,VWS V13.00,2013-05-09 13:54:00,
2013-05-09 08:59:00,69.2,63.5,30.08,West,273,0.0,4.0,82,0.00,,SKC,0.00,VWS V13.00,2013-05-09 13:59:00,
2013-05-09 09:04:00,69.6,62.8,30.08,West,281,1.0,3.0,79,0.00,,SKC,0.00,VWS V13.00,2013-05-09 14:04:00,
2013-05-09 09:09:00,70.0,63.5,30.08,WSW,257,2.0,4.0,80,0.00,,SKC,0.00,VWS V13.00,2013-05-09 14:09:00,
2013-05-09 09:14:00,70.1,62.9,30.08,WSW,257,2.0,4.0,78,0.00,,SKC,0.00,VWS V13.00,2013-05-09 14:14:00,
2013-05-09 09:19:00,70.2,63.8,30.08,WSW,252,1.0,4.0,80,0.00,,SKC,0.00,VWS V13.00,2013-05-09 14:19:00,
2013-05-09 09:24:00,70.6,63.8,30.08,WSW,244,1.0,4.0,79,0.00,,SKC,0.00,VWS V13.00,2013-05-09 14:24:00,
2013-05-09 09:29:00,71.0,64.2,30.08,WSW,242,1.0,4.0,79,0.00,,SKC,0.00,VWS V13.00,2013-05-09 14:29:00,
2013-05-09 09:34:00,71.8,63.8,30.08,SW,226,2.0,5.0,76,0.00,,SKC,0.00,VWS V13.00,2013-05-09 14:34:00,
2013-05-09 09:39:00,72.5,63.0,30.08,WSW,240,4.0,5.0,72,0.00,,SKC,0.00,VWS V13.00,2013-05-09 14:39:00,
2013-05-09 09:44:00,72.8,63.3,30.07,SW,224,5.0,5.0,72,0.00,,SKC,0.00,VWS V13.00,2013-05-09 14:44:00,
2013-05-09 09:49:00,73.0,62.7,30.07,West,261,6.0,8.0,70,0.00,,SKC,0.00,VWS V13.00,2013-05-09 14:49:00,
2013-05-09 09:54:00,73.1,62.3,30.08,WNW,302,3.0,8.0,69,0.00,,SKC,0.00,VWS V13.00,2013-05-09 14:54:00,
2013-05-09 09:59:00,73.5,61.9,30.08,WSW,244,4.0,8.0,67,0.00,,SKC,0.00,VWS V13.00,2013-05-09 14:59:00,
2013-05-09 10:04:00,73.7,63.3,30.08,West,262,3.0,7.0,70,0.00,,SKC,0.00,VWS V13.00,2013-05-09 15:04:00,
2013-05-09 10:09:00,73.9,62.7,30.08,West,279,4.0,8.0,68,0.00,,SKC,0.00,VWS V13.00,2013-05-09 15:09:00,
2013-05-09 10:14:00,74.4,61.9,30.08,West,267,5.0,9.0,65,0.00,,SKC,0.00,VWS V13.00,2013-05-09 15:14:00,
2013-05-09 10:19:00,74.5,62.4,30.08,WSW,250,2.0,9.0,66,0.00,,SKC,0.00,VWS V13.00,2013-05-09 15:19:00,
2013-05-09 10:24:00,74.9,64.5,30.08,WNW,290,6.0,9.0,70,0.00,,SKC,0.00,VWS V13.00,2013-05-09 15:24:00,
2013-05-09 10:29:00,75.2,62.6,30.08,West,276,3.0,9.0,65,0.00,,SKC,0.00,VWS V13.00,2013-05-09 15:29:00,
2013-05-09 10:34:00,75.4,61.5,30.08,NW,304,0.0,6.0,62,0.00,,SKC,0.00,VWS V13.00,2013-05-09 15:34:00,
2013-05-09 10:39:00,75.4,61.9,30.09,West,274,4.0,10.0,63,0.00,,SKC,0.00,VWS V13.00,2013-05-09 15:39:00,
2013-05-09 10:44:00,75.2,60.4,30.09,West,271,2.0,10.0,60,0.00,,SKC,0.00,VWS V13.00,2013-05-09 15:44:00,
2013-05-09 10:49:00,75.4,63.7,30.09,WNW,298,1.0,10.0,67,0.00,,SKC,0.00,VWS V13.00,2013-05-09 15:49:00,
2013-05-09 10:54:00,75.9,63.3,30.09,West,269,3.0,10.0,65,0.00,,SKC,0.00,VWS V13.00,2013-05-09 15:54:00,
2013-05-09 10:59:00,76.0,62.5,30.09,SW,234,7.0,11.0,63,0.00,,SKC,0.00,VWS V13.00,2013-05-09 15:59:00,
2013-05-09 11:04:00,75.6,61.2,30.09,SW,228,3.0,5.0,61,0.00,,SKC,0.00,VWS V13.00,2013-05-09 16:04:00,
2013-05-09 11:09:00,76.0,61.1,30.09,West,264,3.0,8.0,60,0.00,,SKC,0.00,VWS V13.00,2013-05-09 16:09:00,
2013-05-09 11:14:00,76.3,61.4,30.09,West,266,2.0,9.0,60,0.00,,SKC,0.00,VWS V13.00,2013-05-09 16:14:00,
2013-05-09 11:19:00,76.5,59.2,30.09,NW,306,3.0,9.0,55,0.00,,SKC,0.00,VWS V13.00,2013-05-09 16:19:00,
2013-05-09 11:24:00,76.9,62.4,30.09,NW,312,4.0,9.0,61,0.00,,SKC,0.00,VWS V13.00,2013-05-09 16:24:00,
2013-05-09 11:29:00,76.6,61.2,30.09,WNW,289,4.0,9.0,59,0.00,,SKC,0.00,VWS V13.00,2013-05-09 16:29:00,
2013-05-09 11:34:00,76.6,61.2,30.09,SSW,193,3.0,7.0,59,0.00,,SKC,0.00,VWS V13.00,2013-05-09 16:34:00,
2013-05-09 11:39:00,76.9,62.4,30.09,South,183,2.0,12.0,61,0.00,,SKC,0.00,VWS V13.00,2013-05-09 16:39:00,
2013-05-09 11:44:00,77.4,62.9,30.09,WSW,252,2.0,12.0,61,0.00,,SKC,0.00,VWS V13.00,2013-05-09 16:44:00,
2013-05-09 11:49:00,77.5,59.6,30.09,SSW,194,5.0,12.0,54,0.00,,SKC,0.00,VWS V13.00,2013-05-09 16:49:00,
2013-05-09 11:54:00,77.4,61.0,30.09,West,269,2.0,12.0,57,0.00,,SKC,0.00,VWS V13.00,2013-05-09 16:54:00,
2013-05-09 11:59:00,77.3,60.4,30.09,SSW,207,2.0,12.0,56,0.00,,SKC,0.00,VWS V13.00,2013-05-09 16:59:00,
2013-05-09 12:04:00,77.5,60.6,30.09,West,275,5.0,8.0,56,0.00,,SKC,0.00,VWS V13.00,2013-05-09 17:04:00,
2013-05-09 12:09:00,77.7,60.3,30.08,SSW,207,6.0,8.0,55,0.00,,SKC,0.00,VWS V13.00,2013-05-09 17:09:00,
2013-05-09 12:14:00,77.5,59.6,30.08,SSW,208,1.0,9.0,54,0.00,,SKC,0.00,VWS V13.00,2013-05-09 17:14:00,
2013-05-09 12:19:00,77.2,59.3,30.08,WSW,248,5.0,9.0,54,0.00,,SKC,0.00,VWS V13.00,2013-05-09 17:19:00,
2013-05-09 12:24:00,77.3,61.9,30.08,SW,216,0.0,9.0,59,0.00,,SKC,0.00,VWS V13.00,2013-05-09 17:24:00,
2013-05-09 12:29:00,77.7,63.2,30.08,WNW,293,6.0,9.0,61,0.00,,SKC,0.00,VWS V13.00,2013-05-09 17:29:00,
2013-05-09 12:34:00,78.1,60.6,30.08,SW,214,1.0,7.0,55,0.00,,SKC,0.00,VWS V13.00,2013-05-09 17:34:00,
2013-05-09 12:39:00,78.2,60.7,30.08,SW,218,2.0,10.0,55,0.00,,SKC,0.00,VWS V13.00,2013-05-09 17:39:00,
2013-05-09 12:44:00,78.0,58.4,30.08,SW,219,2.0,10.0,51,0.00,,SKC,0.00,VWS V13.00,2013-05-09 17:44:00,
2013-05-09 12:49:00,77.7,60.3,30.08,SW,217,5.0,10.0,55,0.00,,SKC,0.00,VWS V13.00,2013-05-09 17:49:00,
2013-05-09 12:54:00,77.7,60.3,30.08,West,277,0.0,10.0,55,0.00,,SKC,0.00,VWS V13.00,2013-05-09 17:54:00,
2013-05-09 12:59:00,77.9,61.5,30.07,WSW,240,4.0,10.0,57,0.00,,SKC,0.00,VWS V13.00,2013-05-09 17:59:00,
2013-05-09 13:04:00,78.3,61.8,30.07,SSW,205,9.0,11.0,57,0.00,,SKC,0.00,VWS V13.00,2013-05-09 18:04:00,
2013-05-09 13:09:00,78.3,60.3,30.07,West,270,4.0,11.0,54,0.00,,SKC,0.00,VWS V13.00,2013-05-09 18:09:00,
2013-05-09 13:14:00,78.3,59.2,30.07,WNW,290,8.0,12.0,52,0.00,,SKC,0.00,VWS V13.00,2013-05-09 18:14:00,
2013-05-09 13:19:00,78.6,57.9,30.07,WSW,242,4.0,12.0,49,0.00,,SKC,0.00,VWS V13.00,2013-05-09 18:19:00,
2013-05-09 13:24:00,78.2,56.9,30.07,WNW,282,1.0,12.0,48,0.00,,SKC,0.00,VWS V13.00,2013-05-09 18:24:00,
2013-05-09 13:29:00,77.9,59.9,30.07,West,265,6.0,12.0,54,0.00,,SKC,0.00,VWS V13.00,2013-05-09 18:29:00,
2013-05-09 13:34:00,78.1,60.6,30.07,WNW,292,4.0,7.0,55,0.00,,SKC,0.00,VWS V13.00,2013-05-09 18:34:00,
2013-05-09 13:39:00,78.6,59.5,30.07,WNW,286,3.0,9.0,52,0.00,,SKC,0.00,VWS V13.00,2013-05-09 18:39:00,
2013-05-09 13:44:00,78.9,59.8,30.06,SW,225,7.0,9.0,52,0.00,,SKC,0.00,VWS V13.00,2013-05-09 18:44:00,
2013-05-09 13:49:00,78.8,60.2,30.06,WSW,252,7.0,10.0,53,0.00,,SKC,0.00,VWS V13.00,2013-05-09 18:49:00,
2013-05-09 13:54:00,78.8,58.6,30.06,West,259,0.0,10.0,50,0.00,,SKC,0.00,VWS V13.00,2013-05-09 18:54:00,
2013-05-09 13:59:00,79.0,59.9,30.06,SW,234,5.0,10.0,52,0.00,,SKC,0.00,VWS V13.00,2013-05-09 18:59:00,
2013-05-09 14:04:00,79.2,61.7,30.06,SSW,193,5.0,5.0,55,0.00,,SKC,0.00,VWS V13.00,2013-05-09 19:04:00,
2013-05-09 14:09:00,79.3,59.6,30.06,WSW,250,4.0,8.0,51,0.00,,SKC,0.00,VWS V13.00,2013-05-09 19:09:00,
2013-05-09 14:14:00,79.2,59.0,30.06,WSW,242,5.0,10.0,50,0.00,,SKC,0.00,VWS V13.00,2013-05-09 19:14:00,
2013-05-09 14:18:00,79.2,59.5,30.06,WNW,296,2.0,10.0,51,0.00,,SKC,0.00,VWS V13.00,2013-05-09 19:18:00,
2013-05-09 14:23:00,79.4,58.0,30.05,WNW,292,7.0,13.0,48,0.00,,SKC,0.00,VWS V13.00,2013-05-09 19:23:00,
2013-05-09 14:28:00,79.1,58.9,30.05,West,273,4.0,13.0,50,0.00,,SKC,0.00,VWS V13.00,2013-05-09 19:28:00,
2013-05-09 14:33:00,78.8,60.8,30.05,West,265,6.0,7.0,54,0.00,,SKC,0.00,VWS V13.00,2013-05-09 19:33:00,
2013-05-09 14:38:00,79.1,60.0,30.05,WSW,258,7.0,10.0,52,0.00,,SKC,0.00,VWS V13.00,2013-05-09 19:38:00,
2013-05-09 14:43:00,79.5,59.8,30.04,WNW,300,7.0,11.0,51,0.00,,SKC,0.00,VWS V13.00,2013-05-09 19:43:00,
2013-05-09 14:48:00,79.7,58.3,30.04,NW,304,9.0,12.0,48,0.00,,SKC,0.00,VWS V13.00,2013-05-09 19:48:00,
2013-05-09 14:53:00,79.6,59.9,30.04,WSW,244,7.0,12.0,51,0.00,,SKC,0.00,VWS V13.00,2013-05-09 19:53:00,
2013-05-09 14:58:00,79.4,58.6,30.03,WNW,289,5.0,13.0,49,0.00,,SKC,0.00,VWS V13.00,2013-05-09 19:58:00,
2013-05-09 15:03:00,79.8,60.1,30.03,WSW,247,3.0,7.0,51,0.00,,SKC,0.00,VWS V13.00,2013-05-09 20:03:00,
2013-05-09 15:08:00,80.2,59.9,30.03,West,280,5.0,8.0,50,0.00,,SKC,0.00,VWS V13.00,2013-05-09 20:08:00,
2013-05-09 15:13:00,80.5,61.3,30.03,WSW,247,1.0,8.0,52,0.00,,SKC,0.00,VWS V13.00,2013-05-09 20:13:00,
2013-05-09 15:18:00,80.7,60.3,30.03,West,273,3.0,8.0,50,0.00,,SKC,0.00,VWS V13.00,2013-05-09 20:18:00,
2013-05-09 15:23:00,80.6,57.9,30.02,WSW,246,5.0,8.0,46,0.00,,SKC,0.00,VWS V13.00,2013-05-09 20:23:00,
2013-05-09 15:28:00,80.4,60.1,30.02,SW,230,6.0,11.0,50,0.00,,SKC,0.00,VWS V13.00,2013-05-09 20:28:00,
2013-05-09 15:33:00,79.8,58.4,30.02,WNW,291,6.0,8.0,48,0.00,,SKC,0.00,VWS V13.00,2013-05-09 20:33:00,
2013-05-09 15:38:00,79.4,58.6,30.02,WSW,252,0.0,10.0,49,0.00,,SKC,0.00,VWS V13.00,2013-05-09 20:38:00,
2013-05-09 15:43:00,79.1,60.0,30.02,South,190,4.0,10.0,52,0.00,,SKC,0.00,VWS V13.00,2013-05-09 20:43:00,
2013-05-09 15:48:00,79.4,59.7,30.02,WSW,239,4.0,10.0,51,0.00,,SKC,0.00,VWS V13.00,2013-05-09 20:48:00,
2013-05-09 15:53:00,79.0,57.7,30.02,WSW,257,2.0,10.0,48,0.00,,SKC,0.00,VWS V13.00,2013-05-09 20:53:00,
2013-05-09 15:58:00,79.2,59.5,30.02,West,280,3.0,10.0,51,0.00,,SKC,0.00,VWS V13.00,2013-05-09 20:58:00,
2013-05-09 16:03:00,79.3,59.6,30.02,West,271,5.0,6.0,51,0.00,,SKC,0.00,VWS V13.00,2013-05-09 21:03:00,
2013-05-09 16:08:00,79.6,58.2,30.02,SW,225,5.0,7.0,48,0.00,,SKC,0.00,VWS V13.00,2013-05-09 21:08:00,
2013-05-09 16:13:00,79.9,60.2,30.02,WNW,294,6.0,7.0,51,0.00,,SKC,0.00,VWS V13.00,2013-05-09 21:13:00,
2013-05-09 16:18:00,80.3,57.7,30.02,SW,216,3.0,8.0,46,0.00,,SKC,0.00,VWS V13.00,2013-05-09 21:18:00,
2013-05-09 16:23:00,80.4,60.1,30.01,West,281,6.0,8.0,50,0.00,,SKC,0.00,VWS V13.00,2013-05-09 21:23:00,
2013-05-09 16:28:00,80.2,59.3,30.01,WNW,300,4.0,9.0,49,0.00,,SKC,0.00,VWS V13.00,2013-05-09 21:28:00,
2013-05-09 16:33:00,80.4,60.6,30.01,West,266,1.0,6.0,51,0.00,,SKC,0.00,VWS V13.00,2013-05-09 21:33:00,
2013-05-09 16:38:00,80.5,59.6,30.00,West,267,3.0,8.0,49,0.00,,SKC,0.00,VWS V13.00,2013-05-09 21:38:00,
2013-05-09 16:43:00,80.4,58.3,30.00,WSW,254,0.0,8.0,47,0.00,,SKC,0.00,VWS V13.00,2013-05-09 21:43:00,
2013-05-09 16:48:00,80.6,59.1,30.00,WSW,244,3.0,8.0,48,0.00,,SKC,0.00,VWS V13.00,2013-05-09 21:48:00,
2013-05-09 16:53:00,80.4,58.9,30.00,West,263,2.0,8.0,48,0.00,,SKC,0.00,VWS V13.00,2013-05-09 21:53:00,
2013-05-09 16:58:00,80.4,59.5,30.00,West,259,8.0,8.0,49,0.00,,SKC,0.00,VWS V13.00,2013-05-09 21:58:00,
2013-05-09 17:03:00,80.2,59.3,30.00,WSW,241,6.0,7.0,49,0.00,,SKC,0.00,VWS V13.00,2013-05-09 22:03:00,
2013-05-09 17:08:00,80.0,59.7,30.00,WSW,240,1.0,7.0,50,0.00,,SKC,0.00,VWS V13.00,2013-05-09 22:08:00,
2013-05-09 17:13:00,80.0,58.6,30.00,SW,217,4.0,7.0,48,0.00,,SKC,0.00,VWS V13.00,2013-05-09 22:13:00,
2013-05-09 17:18:00,79.9,59.0,30.00,WSW,245,5.0,8.0,49,0.00,,SKC,0.00,VWS V13.00,2013-05-09 22:18:00,
2013-05-09 17:23:00,79.8,59.0,30.00,SW,232,2.0,8.0,49,0.00,,SKC,0.00,VWS V13.00,2013-05-09 22:23:00,
2013-05-09 17:28:00,80.0,60.8,30.00,SW,227,1.0,8.0,52,0.00,,SKC,0.00,VWS V13.00,2013-05-09 22:28:00,
2013-05-09 17:33:00,79.8,58.4,29.99,SW,232,6.0,7.0,48,0.00,,SKC,0.00,VWS V13.00,2013-05-09 22:33:00,
2013-05-09 17:38:00,79.7,58.3,29.99,SSW,210,8.0,8.0,48,0.00,,SKC,0.00,VWS V13.00,2013-05-09 22:38:00,
2013-05-09 17:43:00,79.5,59.2,29.99,WSW,242,3.0,8.0,50,0.00,,SKC,0.00,VWS V13.00,2013-05-09 22:43:00,
2013-05-09 17:48:00,79.4,59.2,29.99,WSW,242,1.0,8.0,50,0.00,,SKC,0.00,VWS V13.00,2013-05-09 22:48:00,
2013-05-09 17:53:00,79.3,58.5,29.99,WSW,257,6.0,8.0,49,0.00,,SKC,0.00,VWS V13.00,2013-05-09 22:53:00,
2013-05-09 17:58:00,79.3,59.6,29.98,SSW,211,4.0,8.0,51,0.00,,SKC,0.00,VWS V13.00,2013-05-09 22:58:00,
2013-05-09 18:03:00,79.3,59.1,29.98,WSW,248,1.0,7.0,50,0.00,,SKC,0.00,VWS V13.00,2013-05-09 23:03:00,
2013-05-09 18:08:00,79.1,59.4,29.99,SW,221,1.0,7.0,51,0.00,,SKC,0.00,VWS V13.00,2013-05-09 23:08:00,
2013-05-09 18:13:00,79.0,60.4,29.99,South,182,2.0,7.0,53,0.00,,SKC,0.00,VWS V13.00,2013-05-09 23:13:00,
2013-05-09 18:18:00,78.7,59.6,29.98,South,182,5.0,7.0,52,0.00,,SKC,0.00,VWS V13.00,2013-05-09 23:18:00,
2013-05-09 18:23:00,78.1,59.6,29.98,South,175,4.0,9.0,53,0.00,,SKC,0.00,VWS V13.00,2013-05-09 23:23:00,
2013-05-09 18:28:00,77.6,59.7,29.99,SSW,213,2.0,9.0,54,0.00,,SKC,0.00,VWS V13.00,2013-05-09 23:28:00,
2013-05-09 18:33:00,77.3,59.4,29.99,SSW,206,2.0,7.0,54,0.00,,SKC,0.00,VWS V13.00,2013-05-09 23:33:00,
2013-05-09 18:38:00,77.0,59.1,29.99,SW,233,0.0,7.0,54,0.00,,SKC,0.00,VWS V13.00,2013-05-09 23:38:00,
2013-05-09 18:43:00,76.8,59.9,29.99,SSW,210,0.0,7.0,56,0.00,,SKC,0.00,VWS V13.00,2013-05-09 23:43:00,
2013-05-09 18:48:00,76.5,60.6,29.99,SW,226,0.0,7.0,58,0.00,,SKC,0.00,VWS V13.00,2013-05-09 23:48:00,
2013-05-09 18:53:00,76.1,60.3,29.99,SW,223,2.0,7.0,58,0.00,,SKC,0.00,VWS V13.00,2013-05-09 23:53:00,
2013-05-09 18:58:00,75.7,59.4,29.99,SSW,193,2.0,7.0,57,0.00,,SKC,0.00,VWS V13.00,2013-05-09 23:58:00,
2013-05-09 19:03:00,75.4,60.6,29.99,SSW,193,0.0,1.0,60,0.00,,SKC,0.00,VWS V13.00,2013-05-10 00:03:00,
2013-05-09 19:08:00,75.0,60.7,29.99,SSW,193,0.0,2.0,61,0.00,,SKC,0.00,VWS V13.00,2013-05-10 00:08:00,
2013-05-09 19:13:00,74.5,60.2,29.99,SSW,203,1.0,4.0,61,0.00,,SKC,0.00,VWS V13.00,2013-05-10 00:13:00,
2013-05-09 19:18:00,73.9,59.6,29.99,South,186,1.0,5.0,61,0.00,,SKC,0.00,VWS V13.00,2013-05-10 00:18:00,
2013-05-09 19:23:00,73.5,59.7,29.99,South,186,1.0,5.0,62,0.00,,SKC,0.00,VWS V13.00,2013-05-10 00:23:00,
2013-05-09 19:28:00,73.1,59.8,29.99,SSE,167,2.0,5.0,63,0.00,,SKC,0.00,VWS V13.00,2013-05-10 00:28:00,
2013-05-09 19:33:00,72.8,60.4,29.99,SSE,167,1.0,3.0,65,0.00,,SKC,0.00,VWS V13.00,2013-05-10 00:33:00,
2013-05-09 19:38:00,72.5,60.1,30.00,South,180,2.0,5.0,65,0.00,,SKC,0.00,VWS V13.00,2013-05-10 00:38:00,
2013-05-09 19:43:00,72.4,60.0,30.00,South,180,2.0,5.0,65,0.00,,SKC,0.00,VWS V13.00,2013-05-10 00:43:00,
2013-05-09 19:48:00,72.2,59.8,30.00,South,180,4.0,6.0,65,0.00,,SKC,0.00,VWS V13.00,2013-05-10 00:48:00,
2013-05-09 19:53:00,72.0,60.0,30.01,South,174,4.0,6.0,66,0.00,,SKC,0.00,VWS V13.00,2013-05-10 00:53:00,
2013-05-09 19:58:00,71.6,60.1,30.01,South,186,2.0,6.0,67,0.00,,SKC,0.00,VWS V13.00,2013-05-10 00:58:00,
2013-05-09 20:03:00,71.7,60.2,30.00,South,176,5.0,5.0,67,0.00,,SKC,0.00,VWS V13.00,2013-05-10 01:03:00,
2013-05-09 20:08:00,71.6,60.1,30.01,South,178,2.0,6.0,67,0.00,,SKC,0.00,VWS V13.00,2013-05-10 01:08:00,
2013-05-09 20:13:00,71.5,60.4,30.01,SSW,196,5.0,7.0,68,0.00,,SKC,0.00,VWS V13.00,2013-05-10 01:13:00,
2013-05-09 20:18:00,71.3,60.2,30.01,South,186,2.0,7.0,68,0.00,,SKC,0.00,VWS V13.00,2013-05-10 01:18:00,
2013-05-09 20:23:00,71.0,60.3,30.01,South,180,1.0,7.0,69,0.00,,SKC,0.00,VWS V13.00,2013-05-10 01:23:00,
2013-05-09 20:28:00,70.8,60.1,30.01,South,185,2.0,7.0,69,0.00,,SKC,0.00,VWS V13.00,2013-05-10 01:28:00,
2013-05-09 20:33:00,70.6,60.3,30.01,SSW,196,1.0,5.0,70,0.00,,SKC,0.00,VWS V13.00,2013-05-10 01:33:00,
2013-05-09 20:38:00,70.4,60.2,30.01,South,177,2.0,5.0,70,0.00,,SKC,0.00,VWS V13.00,2013-05-10 01:38:00,
2013-05-09 20:43:00,70.3,60.5,30.01,SSW,197,1.0,6.0,71,0.00,,SKC,0.00,VWS V13.00,2013-05-10 01:43:00,
2013-05-09 20:48:00,70.2,60.4,30.02,South,180,2.0,6.0,71,0.00,,SKC,0.00,VWS V13.00,2013-05-10 01:48:00,
2013-05-09 20:53:00,70.3,60.5,30.02,South,188,1.0,6.0,71,0.00,,SKC,0.00,VWS V13.00,2013-05-10 01:53:00,
2013-05-09 20:58:00,70.2,60.4,30.02,South,188,1.0,6.0,71,0.00,,SKC,0.00,VWS V13.00,2013-05-10 01:58:00,
2013-05-09 21:03:00,70.2,60.8,30.02,South,183,2.0,3.0,72,0.00,,SKC,0.00,VWS V13.00,2013-05-10 02:03:00,
2013-05-09 21:08:00,70.1,60.7,30.02,South,184,0.0,3.0,72,0.00,,SKC,0.00,VWS V13.00,2013-05-10 02:08:00,
2013-05-09 21:13:00,70.1,60.7,30.02,South,189,1.0,4.0,72,0.00,,SKC,0.00,VWS V13.00,2013-05-10 02:13:00,
2013-05-09 21:18:00,69.9,60.5,30.01,South,183,1.0,4.0,72,0.00,,SKC,0.00,VWS V13.00,2013-05-10 02:18:00,
2013-05-09 21:23:00,69.7,60.7,30.02,South,183,1.0,4.0,73,0.00,,SKC,0.00,VWS V13.00,2013-05-10 02:23:00,
2013-05-09 21:28:00,69.5,60.5,30.02,SSW,198,0.0,5.0,73,0.00,,SKC,0.00,VWS V13.00,2013-05-10 02:28:00,
2013-05-09 21:33:00,69.5,60.5,30.02,SSW,198,0.0,0.0,73,0.00,,SKC,0.00,VWS V13.00,2013-05-10 02:33:00,
2013-05-09 21:38:00,69.3,60.7,30.02,SSW,198,0.0,0.0,74,0.00,,SKC,0.00,VWS V13.00,2013-05-10 02:38:00,
2013-05-09 21:43:00,69.2,61.0,30.02,SSW,198,0.0,0.0,75,0.00,,SKC,0.00,VWS V13.00,2013-05-10 02:43:00,
2013-05-09 21:48:00,68.9,61.0,30.02,SSW,198,0.0,0.0,76,0.00,,SKC,0.00,VWS V13.00,2013-05-10 02:48:00,
2013-05-09 21:53:00,68.5,61.0,30.02,SSW,198,0.0,0.0,77,0.00,,SKC,0.00,VWS V13.00,2013-05-10 02:53:00,
2013-05-09 21:58:00,68.1,60.6,30.02,SSW,198,0.0,0.0,77,0.00,,SKC,0.00,VWS V13.00,2013-05-10 02:58:00,
2013-05-09 22:03:00,67.8,60.3,30.02,SSW,198,0.0,0.0,77,0.00,,SKC,0.00,VWS V13.00,2013-05-10 03:03:00,
2013-05-09 22:08:00,67.8,60.7,30.02,SSW,198,0.0,0.0,78,0.00,,SKC,0.00,VWS V13.00,2013-05-10 03:08:00,
2013-05-09 22:13:00,67.6,60.9,30.02,SSW,198,0.0,0.0,79,0.00,,SKC,0.00,VWS V13.00,2013-05-10 03:13:00,
2013-05-09 22:18:00,67.5,60.4,30.02,SSW,198,2.0,2.0,78,0.00,,SKC,0.00,VWS V13.00,2013-05-10 03:18:00,
2013-05-09 22:23:00,67.6,60.5,30.02,SSW,198,0.0,4.0,78,0.00,,SKC,0.00,VWS V13.00,2013-05-10 03:23:00,
2013-05-09 22:28:00,67.8,60.3,30.02,SSW,198,0.0,4.0,77,0.00,,SKC,0.00,VWS V13.00,2013-05-10 03:28:00,
2013-05-09 22:33:00,68.0,60.2,30.02,SSW,198,0.0,1.0,76,0.00,,SKC,0.00,VWS V13.00,2013-05-10 03:33:00,
2013-05-09 22:38:00,68.1,60.6,30.01,SSW,198,0.0,1.0,77,0.00,,SKC,0.00,VWS V13.00,2013-05-10 03:38:00,
2013-05-09 22:43:00,68.1,60.3,30.02,SSW,198,0.0,2.0,76,0.00,,SKC,0.00,VWS V13.00,2013-05-10 03:43:00,
2013-05-09 22:48:00,68.1,60.3,30.01,South,186,2.0,4.0,76,0.00,,SKC,0.00,VWS V13.00,2013-05-10 03:48:00,
2013-05-09 22:53:00,68.0,60.5,30.01,South,186,0.0,4.0,77,0.00,,SKC,0.00,VWS V13.00,2013-05-10 03:53:00,
2013-05-09 22:58:00,67.8,60.0,30.01,South,186,0.0,4.0,76,0.00,,SKC,0.00,VWS V13.00,2013-05-10 03:58:00,
2013-05-09 23:01:00,67.8,60.3,30.02,South,186,0.0,4.0,77,0.00,,SKC,0.00,VWS V13.00,2013-05-10 04:01:00,
2013-05-09 23:06:00,67.6,60.1,30.02,South,186,0.0,4.0,77,0.00,,SKC,0.00,VWS V13.00,2013-05-10 04:06:00,
2013-05-09 23:11:00,67.5,60.0,30.02,South,190,0.0,4.0,77,0.00,,SKC,0.00,VWS V13.00,2013-05-10 04:11:00,
2013-05-09 23:16:00,67.4,60.0,30.02,South,190,0.0,4.0,77,0.00,,SKC,0.00,VWS V13.00,2013-05-10 04:16:00,
2013-05-09 23:21:00,67.2,59.8,30.02,South,190,0.0,4.0,77,0.00,,SKC,0.00,VWS V13.00,2013-05-10 04:21:00,
2013-05-09 23:26:00,67.1,60.0,30.03,South,190,0.0,4.0,78,0.00,,SKC,0.00,VWS V13.00,2013-05-10 04:26:00,
2013-05-09 23:31:00,66.8,60.1,30.03,South,190,0.0,4.0,79,0.00,,SKC,0.00,VWS V13.00,2013-05-10 04:31:00,
2013-05-09 23:36:00,66.5,60.2,30.02,South,190,0.0,0.0,80,0.00,,SKC,0.00,VWS V13.00,2013-05-10 04:36:00,
2013-05-09 23:41:00,66.1,59.8,30.03,South,190,0.0,0.0,80,0.00,,SKC,0.00,VWS V13.00,2013-05-10 04:41:00,
2013-05-09 23:46:00,65.8,59.8,30.02,South,190,0.0,1.0,81,0.00,,SKC,0.00,VWS V13.00,2013-05-10 04:46:00,
2013-05-09 23:51:00,65.8,59.8,30.02,South,190,0.0,1.0,81,0.00,,SKC,0.00,VWS V13.00,2013-05-10 04:51:00,
2013-05-09 23:56:00,65.9,59.6,30.02,South,190,0.0,1.0,80,0.00,,SKC,0.00,VWS V13.00,2013-05-10 04:56:00,